Location: Complexul Astronomic Baia Mare
(47.6577°N, 23.5639°E)
Time: 06:45:46
(UTC+03:00)

ISS - Pass Details

Date: 25 May 2017
Orbit: 402 x 408 km, 51.6° (Epoch: 29 May)

Event Time Altitude Azimuth Distance (km) Brightness Sun altitude
Rises 22:01:05 0° 218° (SW) 2,322 0.0 -7.7°
Maximum altitude 22:06:15 32° 144° (SE) 728 -3.1 -8.4°
Drops below altitude 10° 22:09:14 10° 79° (E) 1,470 -1.3 -8.7°
Sets 22:11:26 0° 69° (ENE) 2,333 -0.2 -9.0°
